| time (UTC) | temp F | wind direction | speed knots | gust knots | rain 1hr in | rain 24hr in | rain mn in | humidity % | barometer mb |
| 20260507105254 | 38 | 237 | 0.9 | 0.9 | 0.00 | 0.00 | 0.00 | 91 | 1011.3 |
| 20260507104752 | 38 | 266 | 0.9 | 1.7 | 0.00 | 0.00 | 0.00 | 90 | 1011.2 |
| 20260507104248 | 38 | 258 | 0.9 | 0.9 | 0.00 | 0.00 | 0.00 | 89 | 1011.1 |
| 20260507103744 | 37 | 241 | 0.9 | 0.9 | 0.00 | 0.00 | 0.00 | 90 | 1011.1 |
| 20260507103240 | 37 | 240 | 1.7 | 1.7 | 0.00 | 0.00 | 0.00 | 89 | 1011.2 |
| 20260507102737 | 37 | 253 | 0.0 | 0.9 | 0.00 | 0.00 | 0.00 | 88 | 1011.2 |
| 20260507102234 | 38 | 276 | 0.9 | 0.9 | 0.00 | 0.00 | 0.00 | 87 | 1011.1 |
| 20260507101730 | 38 | 245 | 0.9 | 1.7 | 0.00 | 0.00 | 0.00 | 86 | 1011.0 |
| 20260507101225 | 37 | 228 | 0.9 | 1.7 | 0.00 | 0.00 | 0.00 | 86 | 1011.2 |
| 20260507100722 | 37 | 249 | 0.9 | 0.9 | 0.00 | 0.00 | 0.00 | 86 | 1011.0 |
| 20260507100221 | 37 | 242 | 0.9 | 1.7 | 0.00 | 0.00 | 0.00 | 90 | 1011.0 |
| 20260507095718 | 37 | 242 | 1.7 | 1.7 | 0.00 | 0.00 | 0.00 | 89 | 1011.1 |
| 20260507095215 | 37 | 258 | 0.9 | 0.9 | 0.00 | 0.00 | 0.00 | 89 | 1010.8 |
| 20260507094712 | 37 | 248 | 0.0 | 0.9 | 0.00 | 0.00 | 0.00 | 89 | 1010.9 |
| 20260507094209 | 38 | 265 | 0.9 | 0.9 | 0.00 | 0.00 | 0.00 | 88 | 1011.0 |
| 20260507093705 | 38 | 238 | 0.9 | 1.7 | 0.00 | 0.00 | 0.00 | 88 | 1011.1 |
| 20260507093204 | 38 | 238 | 0.9 | 1.7 | 0.00 | 0.00 | 0.00 | 88 | 1011.1 |
| 20260507092701 | 37 | 241 | 1.7 | 1.7 | 0.00 | 0.00 | 0.00 | 90 | 1011.1 |
| 20260507092157 | 36 | 249 | 1.7 | 1.7 | 0.00 | 0.00 | 0.00 | 92 | 1011.2 |
| 20260507091654 | 37 | 240 | 1.7 | 1.7 | 0.00 | 0.00 | 0.00 | 92 | 1011.4 |
| 20260507091150 | 37 | 253 | 1.7 | 1.7 | 0.00 | 0.00 | 0.00 | 92 | 1011.3 |
| 20260507090646 | 37 | 243 | 0.9 | 0.9 | 0.00 | 0.00 | 0.00 | 92 | 1011.2 |
| 20260507090143 | 37 | 243 | 1.7 | 1.7 | 0.00 | 0.00 | 0.00 | 92 | 1011.1 |
| 20260507085640 | 37 | 244 | 0.9 | 0.9 | 0.00 | 0.00 | 0.00 | 91 | 1011.2 |
| 20260507085137 | 37 | 248 | 0.9 | 1.7 | 0.00 | 0.00 | 0.00 | 91 | 1011.2 |
| 20260507084634 | 37 | 261 | 0.9 | 0.9 | 0.00 | 0.00 | 0.00 | 91 | 1011.2 |
| 20260507084130 | 37 | 260 | 0.0 | 0.0 | 0.00 | 0.00 | 0.00 | 91 | 1011.0 |
| 20260507083627 | 38 | 252 | 0.0 | 0.9 | 0.00 | 0.00 | 0.00 | 90 | 1011.2 |
| 20260507083124 | 38 | 254 | 0.9 | 0.9 | 0.00 | 0.00 | 0.00 | 89 | 1011.1 |
| 20260507082620 | 38 | 227 | 1.7 | 1.7 | 0.00 | 0.00 | 0.00 | 90 | 1010.9 |
| 20260507082116 | 37 | 223 | 0.9 | 0.9 | 0.00 | 0.00 | 0.00 | 93 | 1011.0 |
| 20260507081613 | 38 | 216 | 0.9 | 0.9 | 0.00 | 0.00 | 0.00 | 94 | 1011.0 |
| 20260507081109 | 37 | 227 | 0.9 | 0.9 | 0.00 | 0.00 | 0.00 | 95 | 1011.1 |
| 20260507080606 | 37 | 243 | 0.9 | 0.9 | 0.00 | 0.00 | 0.00 | 95 | 1011.2 |
| 20260507075557 | 37 | 232 | 0.9 | 0.9 | 0.00 | 0.00 | 0.00 | 94 | 1011.2 |
| 20260507075054 | 37 | 231 | 0.9 | 0.9 | 0.00 | 0.00 | 0.00 | 93 | 1011.1 |
| 20260507074551 | 38 | 233 | 0.9 | 0.9 | 0.00 | 0.00 | 0.00 | 95 | 1010.9 |
| 20260507074049 | 37 | 232 | 0.0 | 0.9 | 0.00 | 0.00 | 0.00 | 95 | 1011.0 |
| 20260507073545 | 37 | 242 | 0.0 | 0.0 | 0.00 | 0.00 | 0.00 | 94 | 1011.2 |
| 20260507073042 | 38 | 243 | 0.0 | 0.0 | 0.00 | 0.00 | 0.00 | 94 | 1011.3 |
| 20260507072539 | 39 | 242 | 0.0 | 0.9 | 0.00 | 0.00 | 0.00 | 94 | 1011.4 |
| 20260507072036 | 39 | 224 | 0.9 | 0.9 | 0.00 | 0.00 | 0.00 | 94 | 1011.3 |
| 20260507071533 | 39 | 233 | 0.0 | 0.9 | 0.00 | 0.00 | 0.00 | 95 | 1011.4 |
| 20260507071030 | 39 | 236 | 0.0 | 0.0 | 0.00 | 0.00 | 0.00 | 95 | 1011.5 |
| 20260507070527 | 39 | 231 | 0.9 | 0.9 | 0.00 | 0.00 | 0.00 | 95 | 1011.5 |
| 20260507070024 | 39 | 224 | 0.9 | 0.9 | 0.00 | 0.00 | 0.00 | 96 | 1011.4 |
| 20260507065520 | 39 | 242 | 0.0 | 0.0 | 0.00 | 0.00 | 0.00 | 96 | 1011.4 |
| 20260507065018 | 39 | 239 | 0.9 | 0.9 | 0.00 | 0.00 | 0.00 | 96 | 1011.4 |
| 20260507064515 | 39 | 241 | 0.0 | 0.0 | 0.00 | 0.00 | 0.00 | 96 | 1011.3 |
| 20260507064014 | 39 | 248 | 0.0 | 0.9 | 0.00 | 0.00 | 0.00 | 96 | 1011.4 |
| 20260507063510 | 40 | 253 | 0.0 | 0.0 | 0.00 | 0.00 | 0.00 | 96 | 1011.6 |
| 20260507063008 | 40 | 249 | 0.0 | 0.0 | 0.00 | 0.00 | 0.00 | 96 | 1011.5 |
| 20260507062504 | 40 | 235 | 0.0 | 0.9 | 0.00 | 0.00 | 0.00 | 96 | 1011.7 |
| 20260507062002 | 40 | 249 | 0.0 | 0.0 | 0.00 | 0.00 | 0.00 | 96 | 1011.4 |
| 20260507061459 | 40 | 239 | 0.0 | 0.0 | 0.00 | 0.00 | 0.00 | 96 | 1011.7 |
| 20260507060958 | 40 | 246 | 0.0 | 0.0 | 0.00 | 0.00 | 0.00 | 96 | 1011.7 |
| 20260507060454 | 40 | 236 | 0.9 | 1.7 | 0.00 | 0.00 | 0.00 | 97 | 1011.5 |
| 20260507055951 | 40 | 235 | 0.0 | 0.9 | 0.00 | 0.00 | 0.00 | 97 | 1011.6 |
| 20260507055446 | 40 | 236 | 0.0 | 0.9 | 0.00 | 0.00 | 0.00 | 96 | 1011.6 |
| 20260507054943 | 40 | 249 | 0.0 | 0.0 | 0.00 | 0.00 | 0.00 | 96 | 1011.6 |
| 20260507054439 | 40 | 254 | 0.0 | 0.0 | 0.00 | 0.00 | 0.00 | 96 | 1011.9 |
| 20260507053937 | 40 | 241 | 0.0 | 0.0 | 0.00 | 0.00 | 0.00 | 96 | 1012.0 |
| 20260507053434 | 40 | 236 | 0.0 | 0.9 | 0.00 | 0.00 | 0.00 | 96 | 1012.1 |
| 20260507052932 | 40 | 258 | 0.9 | 0.9 | 0.00 | 0.00 | 0.00 | 96 | 1012.0 |
| 20260507052430 | 40 | 264 | 0.9 | 0.9 | 0.00 | 0.00 | 0.00 | 96 | 1012.3 |
| 20260507051927 | 40 | 241 | 0.9 | 0.9 | 0.00 | 0.00 | 0.00 | 96 | 1012.3 |
| 20260507051424 | 40 | 251 | 0.0 | 0.9 | 0.00 | 0.00 | 0.00 | 96 | 1012.3 |
| 20260507050921 | 40 | 250 | 0.9 | 0.9 | 0.00 | 0.00 | 0.00 | 96 | 1012.1 |
| 20260507050418 | 40 | 255 | 0.9 | 0.9 | 0.00 | 0.00 | 0.00 | 96 | 1012.3 |
| 20260507045915 | 40 | 261 | 0.9 | 0.9 | 0.00 | 0.00 | 0.00 | 96 | 1012.0 |
| 20260507045411 | 40 | 226 | 1.7 | 1.7 | 0.00 | 0.00 | 0.00 | 96 | 1012.5 |
| 20260507044908 | 40 | 238 | 0.9 | 0.9 | 0.00 | 0.00 | 0.00 | 96 | 1012.3 |
| 20260507044405 | 40 | 253 | 0.0 | 0.9 | 0.00 | 0.00 | 0.00 | 96 | 1012.5 |
| 20260507043901 | 40 | 266 | 0.0 | 0.9 | 0.00 | 0.00 | 0.00 | 96 | 1012.4 |
| 20260507043357 | 40 | 286 | 0.9 | 0.9 | 0.00 | 0.00 | 0.00 | 96 | 1012.1 |
| 20260507042854 | 40 | 242 | 2.6 | 2.6 | 0.00 | 0.00 | 0.00 | 96 | 1012.4 |
| 20260507042350 | 40 | 260 | 1.7 | 1.7 | 0.00 | 0.00 | 0.00 | 96 | 1012.3 |
| 20260507041846 | 40 | 254 | 0.9 | 0.9 | 0.00 | 0.00 | 0.00 | 96 | 1012.5 |
| 20260507041343 | 40 | 255 | 0.9 | 0.9 | 0.00 | 0.00 | 0.00 | 96 | 1011.9 |
| 20260507040841 | 41 | 258 | 1.7 | 1.7 | 0.00 | 0.00 | 0.00 | 96 | 1012.1 |
| 20260507040336 | 41 | 286 | 0.9 | 1.7 | 0.00 | 0.00 | 0.00 | 96 | 1012.1 |
| 20260507035833 | 41 | 266 | 0.9 | 1.7 | 0.00 | 0.44 | 0.44 | 96 | 1012.3 |
| 20260507035328 | 41 | 301 | 1.7 | 1.7 | 0.00 | 0.44 | 0.44 | 96 | 1011.9 |
| 20260507034826 | 41 | 256 | 0.0 | 0.0 | 0.00 | 0.44 | 0.44 | 96 | 1012.0 |
| 20260507034323 | 40 | 229 | 1.7 | 1.7 | 0.00 | 0.44 | 0.44 | 96 | 1011.9 |
| 20260507033821 | 41 | 252 | 0.9 | 1.7 | 0.00 | 0.44 | 0.44 | 97 | 1011.9 |
| 20260507033318 | 41 | 248 | 0.9 | 1.7 | 0.00 | 0.44 | 0.44 | 97 | 1011.9 |
| 20260507032815 | 41 | 290 | 0.9 | 1.7 | 0.00 | 0.44 | 0.44 | 97 | 1012.0 |
| 20260507032311 | 41 | 268 | 1.7 | 1.7 | 0.00 | 0.44 | 0.44 | 97 | 1011.9 |
| 20260507031808 | 41 | 276 | 2.6 | 2.6 | 0.00 | 0.44 | 0.44 | 97 | 1012.0 |
| 20260507031305 | 41 | 264 | 0.9 | 0.9 | 0.00 | 0.44 | 0.44 | 97 | 1012.1 |
| 20260507030801 | 41 | 231 | 2.6 | 2.6 | 0.00 | 0.44 | 0.44 | 97 | 1012.0 |
| 20260507030259 | 41 | 226 | 2.6 | 2.6 | 0.00 | 0.44 | 0.44 | 97 | 1012.0 |
| 20260507025756 | 41 | 261 | 0.9 | 0.9 | 0.00 | 0.44 | 0.44 | 97 | 1011.8 |
| 20260507025253 | 41 | 268 | 1.7 | 1.7 | 0.00 | 0.44 | 0.44 | 97 | 1011.7 |
| 20260507024751 | 41 | 247 | 0.0 | 0.9 | 0.00 | 0.44 | 0.44 | 97 | 1011.7 |
| 20260507024248 | 41 | 281 | 1.7 | 1.7 | 0.00 | 0.44 | 0.44 | 97 | 1011.6 |
| 20260507023743 | 41 | 269 | 1.7 | 2.6 | 0.00 | 0.44 | 0.44 | 97 | 1011.9 |
| 20260507023240 | 41 | 300 | 2.6 | 4.3 | 0.00 | 0.44 | 0.44 | 97 | 1011.5 |
| 20260507022738 | 41 | 266 | 0.9 | 0.9 | 0.00 | 0.44 | 0.44 | 97 | 1011.6 |
| 20260507022233 | 41 | 261 | 0.9 | 1.7 | 0.00 | 0.44 | 0.44 | 97 | 1011.8 |
| 20260507021730 | 41 | 269 | 0.9 | 1.7 | 0.00 | 0.44 | 0.44 | 96 | 1011.8 |
| 20260507021226 | 41 | 300 | 1.7 | 1.7 | 0.00 | 0.44 | 0.44 | 96 | 1011.9 |
| 20260507020724 | 41 | 264 | 0.9 | 1.7 | 0.00 | 0.44 | 0.44 | 96 | 1012.0 |
| 20260507020220 | 41 | 262 | 1.7 | 1.7 | 0.00 | 0.44 | 0.44 | 96 | 1012.3 |
| 20260507015718 | 41 | 258 | 1.7 | 2.6 | 0.00 | 0.44 | 0.44 | 96 | 1012.0 |
| 20260507015215 | 41 | 300 | 1.7 | 1.7 | 0.00 | 0.44 | 0.44 | 96 | 1012.0 |
| 20260507014712 | 41 | 341 | 1.7 | 1.7 | 0.00 | 0.44 | 0.44 | 96 | 1012.0 |
| 20260507014208 | 41 | 306 | 0.9 | 0.9 | 0.00 | 0.44 | 0.44 | 96 | 1012.0 |
| 20260507013705 | 41 | 279 | 0.9 | 0.9 | 0.00 | 0.44 | 0.44 | 96 | 1011.8 |
| 20260507013202 | 41 | 246 | 1.7 | 1.7 | 0.00 | 0.44 | 0.44 | 96 | 1012.0 |
| 20260507012700 | 41 | 252 | 3.5 | 5.2 | 0.00 | 0.44 | 0.44 | 96 | 1011.9 |
| 20260507012155 | 41 | 322 | 0.9 | 1.7 | 0.00 | 0.44 | 0.44 | 96 | 1011.7 |
| 20260507011653 | 41 | 281 | 2.6 | 2.6 | 0.00 | 0.44 | 0.44 | 96 | 1011.8 |
| 20260507011149 | 41 | 258 | 0.9 | 1.7 | 0.00 | 0.44 | 0.44 | 96 | 1011.6 |
| 20260507010644 | 41 | 334 | 0.9 | 1.7 | 0.00 | 0.44 | 0.44 | 96 | 1011.7 |
| 20260507010140 | 41 | 230 | 2.6 | 5.2 | 0.00 | 0.44 | 0.44 | 97 | 1011.8 |
| 20260507005637 | 41 | 300 | 1.7 | 2.6 | 0.00 | 0.44 | 0.44 | 97 | 1011.9 |
| 20260507005133 | 41 | 267 | 1.7 | 1.7 | 0.00 | 0.44 | 0.44 | 97 | 1011.9 |
| 20260507004630 | 41 | 319 | 0.9 | 0.9 | 0.00 | 0.44 | 0.44 | 98 | 1011.9 |
| 20260507004128 | 41 | 258 | 2.6 | 2.6 | 0.00 | 0.44 | 0.44 | 98 | 1011.5 |
| 20260507003624 | 42 | 239 | 3.5 | 4.3 | 0.00 | 0.44 | 0.44 | 98 | 1011.6 |
| 20260507003120 | 42 | 310 | 1.7 | 1.7 | 0.00 | 0.44 | 0.44 | 98 | 1011.2 |
| 20260507002616 | 42 | 212 | 1.7 | 2.6 | 0.00 | 0.44 | 0.44 | 98 | 1011.2 |
| 20260507002112 | 42 | 264 | 0.9 | 0.9 | 0.00 | 0.44 | 0.44 | 98 | 1011.1 |
| 20260507001609 | 42 | 274 | 0.0 | 0.9 | 0.00 | 0.44 | 0.44 | 98 | 1011.2 |
| 20260507001106 | 42 | 330 | 3.5 | 5.2 | 0.00 | 0.44 | 0.44 | 98 | 1011.1 |
| 20260507000602 | 42 | 282 | 2.6 | 4.3 | 0.00 | 0.44 | 0.44 | 98 | 1011.0 |
| 20260507000058 | 42 | 274 | 0.9 | 2.6 | 0.00 | 0.44 | 0.44 | 98 | 1010.8 |
| 20260506235555 | 42 | 274 | 1.7 | 1.7 | 0.00 | 0.44 | 0.44 | 98 | 1010.8 |
| 20260506235050 | 42 | 276 | 0.9 | 1.7 | 0.00 | 0.44 | 0.44 | 98 | 1010.8 |
| 20260506234548 | 42 | 259 | 2.6 | 2.6 | 0.00 | 0.44 | 0.44 | 98 | 1010.8 |
| 20260506234045 | 43 | 254 | 4.3 | 6.1 | 0.00 | 0.44 | 0.44 | 98 | 1010.7 |
| 20260506233542 | 43 | 253 | 1.7 | 5.2 | 0.00 | 0.44 | 0.44 | 98 | 1010.7 |
| 20260506233039 | 43 | 301 | 3.5 | 5.2 | 0.00 | 0.44 | 0.44 | 98 | 1010.7 |
| 20260506232535 | 43 | 254 | 4.3 | 6.1 | 0.00 | 0.44 | 0.44 | 98 | 1010.5 |
| 20260506232030 | 43 | 328 | 0.9 | 1.7 | 0.00 | 0.44 | 0.44 | 98 | 1010.4 |
| 20260506231528 | 44 | 349 | 4.3 | 6.1 | 0.00 | 0.44 | 0.44 | 97 | 1010.6 |
| 20260506231026 | 44 | 270 | 5.2 | 6.1 | 0.00 | 0.44 | 0.44 | 97 | 1010.7 |
| 20260506230522 | 44 | 333 | 4.3 | 7.8 | 0.00 | 0.44 | 0.44 | 96 | 1010.5 |
| 20260506230020 | 45 | 251 | 2.6 | 4.3 | 0.00 | 0.44 | 0.44 | 95 | 1010.3 |
| 20260506225516 | 45 | 337 | 4.3 | 7.8 | 0.00 | 0.44 | 0.44 | 94 | 1010.2 |
| 20260506225013 | 45 | 252 | 2.6 | 4.3 | 0.00 | 0.44 | 0.44 | 93 | 1010.0 |
| 20260506224510 | 46 | 295 | 5.2 | 7.0 | 0.00 | 0.44 | 0.44 | 92 | 1010.1 |
| 20260506224006 | 46 | 242 | 2.6 | 4.3 | 0.00 | 0.44 | 0.44 | 91 | 1010.0 |
| 20260506223502 | 47 | 248 | 3.5 | 6.1 | 0.00 | 0.44 | 0.44 | 88 | 1010.0 |
| 20260506222959 | 47 | 271 | 3.5 | 6.1 | 0.00 | 0.44 | 0.44 | 86 | 1009.7 |
| 20260506222456 | 47 | 278 | 2.6 | 5.2 | 0.00 | 0.44 | 0.44 | 85 | 1009.7 |
| 20260506221952 | 48 | 272 | 0.9 | 1.7 | 0.00 | 0.44 | 0.44 | 86 | 1009.4 |
| 20260506221449 | 48 | 229 | 3.5 | 5.2 | 0.00 | 0.44 | 0.44 | 84 | 1009.4 |
| 20260506220947 | 48 | 289 | 4.3 | 5.2 | 0.00 | 0.44 | 0.44 | 87 | 1009.1 |
| 20260506220442 | 48 | 240 | 1.7 | 2.6 | 0.00 | 0.44 | 0.44 | 90 | 1009.1 |
| 20260506215939 | 48 | 241 | 4.3 | 5.2 | 0.00 | 0.44 | 0.44 | 89 | 1009.2 |
| 20260506215435 | 48 | 259 | 0.9 | 1.7 | 0.00 | 0.44 | 0.44 | 92 | 1009.2 |
| 20260506214931 | 48 | 239 | 0.9 | 0.9 | 0.00 | 0.44 | 0.44 | 91 | 1009.2 |
| 20260506214428 | 48 | 231 | 0.9 | 0.9 | 0.00 | 0.44 | 0.44 | 91 | 1009.1 |
| 20260506213926 | 48 | 303 | 1.7 | 1.7 | 0.00 | 0.44 | 0.44 | 90 | 1009.1 |
| 20260506213423 | 48 | 292 | 0.0 | 0.9 | 0.00 | 0.44 | 0.44 | 92 | 1009.0 |
| 20260506212921 | 48 | 254 | 0.0 | 0.0 | 0.00 | 0.44 | 0.44 | 91 | 1009.0 |
| 20260506212416 | 48 | 263 | 0.0 | 0.0 | 0.00 | 0.44 | 0.44 | 91 | 1008.9 |
| 20260506211911 | 47 | 251 | 0.0 | 0.0 | 0.00 | 0.44 | 0.44 | 91 | 1008.9 |
| 20260506211408 | 47 | 256 | 0.0 | 0.0 | 0.00 | 0.44 | 0.44 | 91 | 1009.0 |
| 20260506210905 | 47 | 249 | 0.0 | 0.0 | 0.00 | 0.44 | 0.44 | 92 | 1008.7 |
| 20260506210401 | 47 | 253 | 0.0 | 0.0 | 0.00 | 0.44 | 0.44 | 92 | 1009.1 |
| 20260506205859 | 47 | 278 | 0.0 | 0.9 | 0.00 | 0.44 | 0.44 | 92 | 1009.2 |
| 20260506205355 | 47 | 233 | 2.6 | 2.6 | 0.00 | 0.44 | 0.44 | 92 | 1009.2 |
| 20260506204851 | 47 | 252 | 0.9 | 0.9 | 0.00 | 0.44 | 0.44 | 91 | 1008.9 |
| 20260506204349 | 47 | 230 | 0.9 | 0.9 | 0.00 | 0.44 | 0.44 | 91 | 1008.9 |
| 20260506203846 | 47 | 248 | 1.7 | 1.7 | 0.00 | 0.44 | 0.44 | 91 | 1009.0 |
| 20260506203343 | 47 | 266 | 0.9 | 0.9 | 0.00 | 0.44 | 0.44 | 91 | 1009.0 |
| 20260506202840 | 47 | 238 | 0.9 | 0.9 | 0.00 | 0.44 | 0.44 | 92 | 1008.9 |
| 20260506202337 | 47 | 286 | 0.9 | 0.9 | 0.00 | 0.44 | 0.44 | 95 | 1009.1 |
| 20260506201834 | 47 | 244 | 0.9 | 0.9 | 0.00 | 0.44 | 0.44 | 96 | 1009.3 |
| 20260506201331 | 47 | 281 | 0.0 | 0.9 | 0.00 | 0.44 | 0.44 | 99 | 1009.2 |
| 20260506200828 | 46 | 256 | 0.0 | 0.0 | 0.00 | 0.44 | 0.44 | 99 | 1009.0 |
| 20260506200324 | 46 | 295 | 0.9 | 0.9 | 0.00 | 0.44 | 0.44 | 99 | 1009.2 |
| 20260506195820 | 46 | 297 | 0.9 | 0.9 | 0.00 | 0.44 | 0.44 | 99 | 1009.2 |
| 20260506195318 | 46 | 122 | 0.0 | 0.0 | 0.00 | 0.44 | 0.44 | 99 | 1009.1 |
| 20260506194815 | 45 | 275 | 0.0 | 0.0 | 0.00 | 0.44 | 0.44 | 99 | 1009.2 |
| 20260506194311 | 46 | 269 | 0.0 | 0.0 | 0.00 | 0.44 | 0.44 | 99 | 1009.3 |
| 20260506193809 | 45 | 251 | 0.0 | 0.0 | 0.00 | 0.44 | 0.44 | 99 | 1009.2 |
| 20260506193305 | 45 | 267 | 0.0 | 0.0 | 0.00 | 0.44 | 0.44 | 99 | 1009.1 |
| 20260506192801 | 45 | 262 | 0.0 | 0.0 | 0.00 | 0.44 | 0.44 | 99 | 1009.3 |
| 20260506192259 | 45 | 264 | 0.0 | 0.0 | 0.00 | 0.44 | 0.44 | 99 | 1009.2 |
| 20260506191756 | 45 | 332 | 0.0 | 0.9 | 0.00 | 0.44 | 0.44 | 99 | 1009.0 |
| 20260506191252 | 45 | 323 | 0.9 | 0.9 | 0.00 | 0.44 | 0.44 | 99 | 1009.2 |
| 20260506190749 | 45 | 307 | 1.7 | 1.7 | 0.00 | 0.44 | 0.44 | 99 | 1009.0 |
| 20260506190245 | 45 | 264 | 0.0 | 0.0 | 0.00 | 0.44 | 0.44 | 99 | 1008.8 |
| 20260506185742 | 45 | 281 | 0.0 | 0.9 | 0.00 | 0.44 | 0.44 | 99 | 1009.2 |
| 20260506185239 | 45 | 254 | 0.0 | 0.0 | 0.00 | 0.44 | 0.44 | 99 | 1009.0 |
| 20260506184731 | 44 | 307 | 0.9 | 1.7 | 0.00 | 0.44 | 0.44 | 99 | 1009.0 |
| 20260506184228 | 44 | 314 | 0.9 | 0.9 | 0.00 | 0.44 | 0.44 | 99 | 1009.1 |
| 20260506183725 | 44 | 315 | 0.9 | 0.9 | 0.00 | 0.44 | 0.44 | 99 | 1009.4 |
| 20260506183221 | 44 | 301 | 0.0 | 0.9 | 0.00 | 0.44 | 0.44 | 99 | 1009.2 |
| 20260506182718 | 44 | 336 | 1.7 | 1.7 | 0.00 | 0.44 | 0.44 | 99 | 1009.2 |
| 20260506182215 | 44 | 262 | 0.0 | 0.0 | 0.00 | 0.44 | 0.44 | 99 | 1009.0 |
| 20260506181713 | 44 | 284 | 0.0 | 0.0 | 0.00 | 0.44 | 0.44 | 99 | 1009.1 |
| 20260506181211 | 44 | 356 | 1.7 | 1.7 | 0.00 | 0.44 | 0.44 | 99 | 1009.3 |
| 20260506180707 | 44 | 319 | 1.7 | 1.7 | 0.00 | 0.44 | 0.44 | 99 | 1009.3 |
| 20260506180202 | 44 | 338 | 2.6 | 2.6 | 0.00 | 0.44 | 0.44 | 99 | 1009.1 |
| 20260506175659 | 44 | 264 | 0.0 | 0.0 | 0.00 | 0.44 | 0.44 | 99 | 1009.2 |
| 20260506175156 | 44 | 212 | 0.0 | 0.0 | 0.00 | 0.44 | 0.44 | 99 | 1009.2 |
| 20260506174655 | 44 | 317 | 0.9 | 0.9 | 0.00 | 0.44 | 0.44 | 99 | 1008.9 |
| 20260506174151 | 44 | 253 | 0.0 | 0.0 | 0.00 | 0.44 | 0.44 | 99 | 1009.1 |
| 20260506173649 | 43 | 308 | 1.7 | 1.7 | 0.00 | 0.44 | 0.44 | 99 | 1009.1 |
| 20260506173145 | 43 | 330 | 0.9 | 0.9 | 0.00 | 0.44 | 0.44 | 99 | 1009.1 |
| 20260506172642 | 43 | 308 | 0.9 | 0.9 | 0.00 | 0.44 | 0.44 | 99 | 1009.1 |
| 20260506172139 | 44 | 262 | 0.0 | 0.0 | 0.00 | 0.44 | 0.44 | 99 | 1009.0 |
| 20260506171631 | 43 | 347 | 2.6 | 2.6 | 0.00 | 0.44 | 0.44 | 99 | 1008.8 |
| 20260506171128 | 44 | 279 | 0.9 | 0.9 | 0.00 | 0.44 | 0.44 | 99 | 1008.6 |
| 20260506170625 | 43 | 267 | 0.0 | 0.9 | 0.00 | 0.44 | 0.44 | 99 | 1008.6 |
| 20260506170117 | 43 | 290 | 0.0 | 0.9 | 0.00 | 0.44 | 0.44 | 99 | 1008.8 |
| 20260506165615 | 43 | 256 | 0.0 | 0.0 | 0.00 | 0.44 | 0.44 | 99 | 1008.5 |
| 20260506165111 | 44 | 327 | 1.7 | 1.7 | 0.00 | 0.44 | 0.44 | 99 | 1008.5 |
| 20260506164609 | 44 | 257 | 0.0 | 0.0 | 0.00 | 0.44 | 0.44 | 99 | 1008.5 |
| 20260506164106 | 43 | 271 | 0.0 | 0.0 | 0.00 | 0.44 | 0.44 | 99 | 1008.5 |
| 20260506163602 | 43 | 257 | 0.0 | 0.0 | 0.00 | 0.44 | 0.44 | 99 | 1008.7 |
| 20260506163057 | 43 | 256 | 0.0 | 0.0 | 0.00 | 0.44 | 0.44 | 99 | 1008.8 |
| 20260506162554 | 43 | 300 | 0.9 | 1.7 | 0.00 | 0.44 | 0.44 | 99 | 1008.6 |
| 20260506162051 | 43 | 264 | 0.0 | 0.0 | 0.00 | 0.44 | 0.44 | 99 | 1008.7 |
| 20260506161549 | 43 | 265 | 0.0 | 0.9 | 0.00 | 0.44 | 0.44 | 99 | 1008.4 |
| 20260506161045 | 43 | 257 | 0.0 | 0.0 | 0.00 | 0.44 | 0.44 | 99 | 1008.5 |
| 20260506160543 | 43 | 252 | 0.0 | 0.0 | 0.00 | 0.44 | 0.44 | 99 | 1008.3 |
| 20260506160039 | 43 | 260 | 0.0 | 0.0 | 0.00 | 0.44 | 0.44 | 99 | 1008.4 |
| 20260506155539 | 43 | 254 | 0.0 | 0.0 | 0.00 | 0.44 | 0.44 | 99 | 1008.2 |
| 20260506153715 | 43 | 227 | 0.0 | 0.0 | 0.00 | 0.44 | 0.44 | 99 | 1008.3 |
| 20260506153213 | 43 | 252 | 0.0 | 0.0 | 0.00 | 0.44 | 0.44 | 99 | 1008.4 |
| 20260506152709 | 42 | 253 | 0.0 | 0.0 | 0.00 | 0.44 | 0.44 | 99 | 1008.7 |
| 20260506152207 | 42 | 8 | 0.0 | 0.0 | 0.00 | 0.44 | 0.44 | 99 | 1008.5 |
| 20260506151706 | 43 | 339 | 0.9 | 0.9 | 0.00 | 0.44 | 0.44 | 99 | 1008.4 |
| 20260506151202 | 42 | 253 | 0.0 | 0.0 | 0.00 | 0.44 | 0.44 | 99 | 1007.9 |
| 20260506150658 | 43 | 254 | 0.0 | 0.0 | 0.05 | 0.44 | 0.44 | 99 | 1008.3 |
| 20260506150156 | 42 | 255 | 0.0 | 0.0 | 0.05 | 0.44 | 0.44 | 99 | 1008.3 |
| 20260506145653 | 42 | 86 | 0.9 | 0.9 | 0.00 | 0.43 | 0.43 | 99 | 1008.3 |
| 20260506145149 | 42 | 237 | 0.0 | 0.0 | 0.00 | 0.43 | 0.43 | 99 | 1008.3 |
| 20260506144647 | 42 | 242 | 0.0 | 0.0 | 0.00 | 0.43 | 0.43 | 99 | 1007.9 |
| 20260506144143 | 42 | 122 | 0.9 | 1.7 | 0.00 | 0.43 | 0.43 | 99 | 1008.1 |
| 20260506143641 | 42 | 206 | 0.0 | 0.9 | 0.00 | 0.43 | 0.43 | 99 | 1008.4 |
| 20260506143139 | 42 | 238 | 0.0 | 0.0 | 0.00 | 0.43 | 0.43 | 99 | 1007.9 |
| 20260506142637 | 42 | 216 | 0.9 | 0.9 | 0.00 | 0.43 | 0.43 | 99 | 1008.0 |
| 20260506142135 | 42 | 122 | 0.0 | 0.0 | 0.00 | 0.43 | 0.43 | 99 | 1008.1 |
| 20260506141632 | 42 | 238 | 0.0 | 0.0 | 0.00 | 0.43 | 0.43 | 99 | 1007.8 |
| 20260506141130 | 42 | 113 | 0.0 | 0.0 | 0.00 | 0.43 | 0.43 | 99 | 1008.0 |
| 20260506140628 | 42 | 225 | 0.0 | 0.9 | 0.00 | 0.43 | 0.43 | 99 | 1007.9 |
| 20260506140125 | 42 | 27 | 0.0 | 0.0 | 0.00 | 0.43 | 0.43 | 99 | 1007.9 |
| 20260506135622 | 42 | 31 | 0.9 | 0.9 | 0.00 | 0.43 | 0.43 | 99 | 1008.0 |
| 20260506135118 | 42 | 242 | 0.0 | 0.0 | 0.00 | 0.43 | 0.43 | 99 | 1007.8 |
| 20260506134615 | 42 | 250 | 0.0 | 0.0 | 0.00 | 0.43 | 0.43 | 99 | 1007.9 |
| 20260506134110 | 42 | 94 | 0.0 | 0.0 | 0.00 | 0.43 | 0.43 | 99 | 1007.8 |
| 20260506133608 | 42 | 94 | 0.0 | 0.0 | 0.07 | 0.43 | 0.43 | 99 | 1007.9 |
| 20260506133105 | 42 | 92 | 0.9 | 0.9 | 0.07 | 0.43 | 0.43 | 99 | 1007.7 |
| 20260506132602 | 42 | 110 | 0.0 | 0.9 | 0.07 | 0.43 | 0.43 | 99 | 1007.6 |
| 20260506132059 | 42 | 108 | 0.0 | 0.0 | 0.00 | 0.42 | 0.42 | 99 | 1007.9 |
| 20260506131556 | 42 | 108 | 0.0 | 0.0 | 0.00 | 0.42 | 0.42 | 99 | 1007.9 |
| 20260506131052 | 42 | 244 | 0.0 | 0.0 | 0.00 | 0.42 | 0.42 | 99 | 1007.8 |
| 20260506130549 | 41 | 120 | 0.0 | 0.0 | 0.00 | 0.42 | 0.42 | 99 | 1007.7 |
| 20260506130047 | 41 | 181 | 0.0 | 0.9 | 0.00 | 0.42 | 0.42 | 99 | 1007.7 |
| 20260506125545 | 41 | 258 | 0.0 | 0.9 | 0.00 | 0.42 | 0.42 | 99 | 1007.8 |
| 20260506125043 | 41 | 115 | 1.7 | 1.7 | 0.00 | 0.42 | 0.42 | 99 | 1007.8 |
| 20260506124540 | 41 | 71 | 0.9 | 0.9 | 0.00 | 0.42 | 0.42 | 99 | 1007.5 |
| 20260506124038 | 41 | 139 | 0.9 | 1.7 | 0.05 | 0.42 | 0.42 | 99 | 1007.6 |
| 20260506123535 | 41 | 126 | 1.7 | 1.7 | 0.05 | 0.42 | 0.42 | 99 | 1007.5 |
| 20260506123033 | 41 | 71 | 0.9 | 0.9 | 0.00 | 0.41 | 0.41 | 99 | 1007.4 |
| 20260506122529 | 41 | 221 | 0.0 | 0.9 | 0.00 | 0.41 | 0.41 | 99 | 1007.6 |
| 20260506122028 | 41 | 128 | 2.6 | 2.6 | 0.00 | 0.41 | 0.41 | 99 | 1007.6 |
| 20260506121525 | 41 | 82 | 0.9 | 1.7 | 0.00 | 0.41 | 0.41 | 99 | 1007.6 |
| 20260506121021 | 41 | 221 | 0.9 | 0.9 | 0.00 | 0.41 | 0.41 | 99 | 1007.7 |
| 20260506120520 | 41 | 243 | 0.0 | 0.0 | 0.07 | 0.41 | 0.41 | 99 | 1007.7 |
| 20260506120017 | 41 | 76 | 0.9 | 0.9 | 0.07 | 0.41 | 0.41 | 99 | 1007.6 |
| 20260506115514 | 41 | 222 | 0.9 | 0.9 | 0.00 | 0.40 | 0.40 | 99 | 1007.9 |
| 20260506115013 | 41 | 234 | 0.0 | 0.0 | 0.00 | 0.40 | 0.40 | 99 | 1008.2 |
| 20260506114509 | 41 | 80 | 0.0 | 0.9 | 0.05 | 0.40 | 0.40 | 99 | 1008.1 |
| 20260506114008 | 41 | 82 | 0.9 | 1.7 | 0.05 | 0.40 | 0.40 | 99 | 1008.1 |
| 20260506113505 | 41 | 285 | 0.0 | 0.9 | 0.00 | 0.39 | 0.39 | 99 | 1007.9 |
| 20260506113003 | 41 | 266 | 0.9 | 0.9 | 0.00 | 0.39 | 0.39 | 99 | 1008.0 |
| 20260506112459 | 41 | 240 | 0.0 | 0.0 | 0.00 | 0.39 | 0.39 | 99 | 1007.8 |
| 20260506111956 | 41 | 355 | 0.9 | 0.9 | 0.00 | 0.39 | 0.39 | 99 | 1007.6 |
| 20260506111454 | 41 | 85 | 0.9 | 0.9 | 0.00 | 0.39 | 0.39 | 99 | 1007.3 |
| 20260506110951 | 41 | 92 | 0.9 | 0.9 | 0.00 | 0.39 | 0.39 | 99 | 1007.2 |
| 20260506110449 | 41 | 76 | 3.5 | 5.2 | 0.00 | 0.39 | 0.39 | 99 | 1007.0 |
| 20260506105945 | 41 | 78 | 1.7 | 1.7 | 0.00 | 0.39 | 0.39 | 99 | 1007.2 |
| 20260506105442 | 41 | 225 | 0.0 | 0.9 | 0.00 | 0.39 | 0.39 | 99 | 1007.3 |